EZY2519 EGGW-EHAM

Flight info

Callsign EZY2519
Flight time 0h 46m
Altitude 27000
Route MATCH Q295 BRAIN M197 REDFA
Aircraft A320/M-SDE3FGHIRWY/LB1

Departure

Time 2026-05-04 12:48
Airport London Luton Airport (EGGW)

Arrival

Time 2026-05-04 13:34
Airport Amsterdam Airport Schiphol (EHAM)
Time Latitude Longitude Altitude Speed Heading
2026-05-04 12:15 51.87680 -0.37178 535 ft 0 kts 344°
2026-05-04 12:32 51.87671 -0.37174 535 ft 2 kts 344°
2026-05-04 12:33 51.87655 -0.37166 535 ft 2 kts 344°
2026-05-04 12:33 51.87638 -0.37159 535 ft 2 kts 344°
2026-05-04 12:33 51.87622 -0.37152 535 ft 2 kts 322°
2026-05-04 12:33 51.87613 -0.37130 535 ft 2 kts 250°
2026-05-04 12:34 51.87613 -0.37125 535 ft 0 kts 239°
2026-05-04 12:36 51.87609 -0.37136 535 ft 6 kts 239°
2026-05-04 12:36 51.87591 -0.37203 535 ft 6 kts 250°
2026-05-04 12:37 51.87581 -0.37262 535 ft 5 kts 260°
2026-05-04 12:37 51.87580 -0.37322 535 ft 9 kts 272°
2026-05-04 12:37 51.87581 -0.37406 536 ft 7 kts 258°
2026-05-04 12:37 51.87543 -0.37469 536 ft 6 kts 212°
2026-05-04 12:38 51.87517 -0.37504 536 ft 4 kts 231°
2026-05-04 12:38 51.87499 -0.37561 536 ft 8 kts 252°
2026-05-04 12:38 51.87498 -0.37564 536 ft 0 kts 253°
2026-05-04 12:39 51.87497 -0.37573 536 ft 4 kts 254°
2026-05-04 12:39 51.87493 -0.37594 536 ft 0 kts 254°
2026-05-04 12:39 51.87492 -0.37601 536 ft 3 kts 254°
2026-05-04 12:40 51.87484 -0.37649 536 ft 4 kts 255°
2026-05-04 12:40 51.87477 -0.37692 536 ft 1 kts 255°
2026-05-04 12:40 51.87465 -0.37764 537 ft 11 kts 254°
2026-05-04 12:40 51.87448 -0.37867 537 ft 8 kts 254°
2026-05-04 12:41 51.87437 -0.37925 537 ft 7 kts 253°
2026-05-04 12:41 51.87421 -0.37996 537 ft 6 kts 241°
2026-05-04 12:41 51.87394 -0.38041 537 ft 5 kts 213°
2026-05-04 12:41 51.87367 -0.38065 538 ft 4 kts 206°
2026-05-04 12:42 51.87359 -0.38071 538 ft 0 kts 206°
2026-05-04 12:45 51.87332 -0.38091 538 ft 10 kts 205°
2026-05-04 12:45 51.87293 -0.38107 537 ft 6 kts 182°
2026-05-04 12:45 51.87254 -0.38123 538 ft 5 kts 213°
2026-05-04 12:45 51.87233 -0.38166 538 ft 7 kts 237°
2026-05-04 12:46 51.87206 -0.38238 538 ft 8 kts 232°
2026-05-04 12:46 51.87198 -0.38299 537 ft 3 kts 311°
2026-05-04 12:46 51.87208 -0.38291 537 ft 1 kts 31°
2026-05-04 12:46 51.87217 -0.38269 537 ft 3 kts 59°
2026-05-04 12:47 51.87219 -0.38259 537 ft 0 kts 68°
2026-05-04 12:47 51.87254 -0.38062 538 ft 56 kts 74°
2026-05-04 12:47 51.87424 -0.37083 536 ft 121 kts 74°
2026-05-04 12:47 51.87681 -0.35549 688 ft 153 kts 73°
2026-05-04 12:48 51.87953 -0.33880 1338 ft 152 kts 72°
2026-05-04 12:48 51.88242 -0.32222 1949 ft 156 kts 74°
2026-05-04 12:48 51.88559 -0.30412 2271 ft 177 kts 73°
2026-05-04 12:48 51.88910 -0.28400 2643 ft 195 kts 73°
2026-05-04 12:49 51.89292 -0.26215 3067 ft 210 kts 74°
2026-05-04 12:49 51.89578 -0.23793 3472 ft 232 kts 94°
2026-05-04 12:49 51.89007 -0.21320 4107 ft 243 kts 128°
2026-05-04 12:49 51.87615 -0.19644 4698 ft 262 kts 155°
2026-05-04 12:50 51.85931 -0.18412 4955 ft 267 kts 156°
2026-05-04 12:50 51.84222 -0.17218 5000 ft 266 kts 157°
2026-05-04 12:50 51.82512 -0.16028 5002 ft 266 kts 156°
2026-05-04 12:50 51.80811 -0.14834 5022 ft 266 kts 157°
2026-05-04 12:51 51.79116 -0.13635 5029 ft 266 kts 157°
2026-05-04 12:51 51.77431 -0.12396 5033 ft 266 kts 151°
2026-05-04 12:51 51.76059 -0.10414 5036 ft 267 kts 124°
2026-05-04 12:51 51.75383 -0.07659 5031 ft 269 kts 98°
2026-05-04 12:52 51.75466 -0.04657 5028 ft 271 kts 83°
2026-05-04 12:52 51.75724 -0.01633 5023 ft 271 kts 83°
2026-05-04 12:52 51.75981 0.01389 4995 ft 271 kts 82°
2026-05-04 12:52 51.76233 0.04383 4993 ft 272 kts 82°
2026-05-04 12:53 51.76489 0.07429 5005 ft 272 kts 83°
2026-05-04 12:53 51.76742 0.10458 5001 ft 272 kts 83°
2026-05-04 12:53 51.76992 0.13498 5007 ft 272 kts 83°
2026-05-04 12:53 51.77241 0.16539 5005 ft 273 kts 83°
2026-05-04 12:54 51.77486 0.19601 5000 ft 272 kts 83°
2026-05-04 12:54 51.77725 0.22573 5009 ft 272 kts 83°
2026-05-04 12:54 51.77970 0.25607 5011 ft 273 kts 83°
2026-05-04 12:54 51.78226 0.28725 5617 ft 281 kts 83°
2026-05-04 12:55 51.78482 0.31853 6743 ft 281 kts 83°
2026-05-04 12:55 51.78738 0.35014 7641 ft 286 kts 83°
2026-05-04 12:55 51.78995 0.38231 8578 ft 290 kts 84°
2026-05-04 12:55 51.79254 0.41482 9516 ft 294 kts 83°
2026-05-04 12:56 51.79517 0.44799 10321 ft 302 kts 84°
2026-05-04 12:56 51.79792 0.48308 10649 ft 326 kts 83°
2026-05-04 12:56 51.80080 0.52014 11051 ft 344 kts 83°
2026-05-04 12:56 51.80381 0.55902 11760 ft 351 kts 83°
2026-05-04 12:57 51.80687 0.59846 12543 ft 355 kts 83°
2026-05-04 12:57 51.81001 0.63857 13297 ft 361 kts 83°
2026-05-04 12:57 51.81507 0.67810 14018 ft 366 kts 76°
2026-05-04 12:57 51.82132 0.71837 14714 ft 369 kts 76°
2026-05-04 12:58 51.82762 0.75904 15434 ft 373 kts 77°
2026-05-04 12:58 51.83397 0.79997 16138 ft 376 kts 77°
2026-05-04 12:58 51.84051 0.84114 16829 ft 379 kts 76°
2026-05-04 12:58 51.84774 0.88242 17535 ft 382 kts 75°
2026-05-04 12:59 51.85531 0.92328 18221 ft 386 kts 74°
2026-05-04 12:59 51.86321 0.96507 18828 ft 389 kts 74°
2026-05-04 12:59 51.87115 1.00717 19391 ft 393 kts 74°
2026-05-04 12:59 51.87909 1.04979 19955 ft 397 kts 74°
2026-05-04 13:00 51.88701 1.09302 20523 ft 402 kts 75°
2026-05-04 13:00 51.89491 1.13669 21092 ft 406 kts 75°
2026-05-04 13:00 51.90286 1.18093 21655 ft 410 kts 75°
2026-05-04 13:00 51.91082 1.22550 22207 ft 414 kts 75°
2026-05-04 13:01 51.91883 1.27055 22747 ft 418 kts 75°
2026-05-04 13:01 51.92681 1.31553 23271 ft 422 kts 75°
2026-05-04 13:01 51.93494 1.36149 23757 ft 426 kts 75°
2026-05-04 13:01 51.94315 1.40785 24192 ft 429 kts 75°
2026-05-04 13:02 51.95147 1.45474 24632 ft 432 kts 75°
2026-05-04 13:02 51.95981 1.50188 25011 ft 436 kts 75°
2026-05-04 13:02 51.96821 1.54954 25397 ft 440 kts 75°
2026-05-04 13:02 51.97655 1.59690 25796 ft 443 kts 75°
2026-05-04 13:03 51.98500 1.64520 26203 ft 445 kts 76°
2026-05-04 13:03 51.99348 1.69389 26611 ft 447 kts 76°
2026-05-04 13:03 52.00162 1.74288 26948 ft 450 kts 77°
2026-05-04 13:03 52.00935 1.79181 27024 ft 444 kts 77°
2026-05-04 13:04 52.01666 1.83965 27033 ft 439 kts 78°
2026-05-04 13:04 52.02388 1.88776 27033 ft 437 kts 78°
2026-05-04 13:04 52.03109 1.93588 27035 ft 437 kts 78°
2026-05-04 13:04 52.03837 1.98400 27023 ft 439 kts 78°
2026-05-04 13:05 52.04574 2.03238 27028 ft 440 kts 78°
2026-05-04 13:05 52.05305 2.08009 27028 ft 440 kts 78°
2026-05-04 13:05 52.06047 2.12847 27028 ft 440 kts 78°
2026-05-04 13:05 52.06786 2.17684 26845 ft 440 kts 78°
2026-05-04 13:06 52.07521 2.22530 26140 ft 440 kts 78°
2026-05-04 13:06 52.08250 2.27338 25553 ft 436 kts 77°
2026-05-04 13:06 52.08971 2.32110 24969 ft 433 kts 77°
2026-05-04 13:06 52.09684 2.36857 24407 ft 430 kts 77°
2026-05-04 13:07 52.10390 2.41579 23843 ft 428 kts 77°
2026-05-04 13:07 52.11110 2.46213 23263 ft 425 kts 73°
2026-05-04 13:07 52.12202 2.50661 22780 ft 420 kts 63°
2026-05-04 13:07 52.13655 2.54767 22428 ft 415 kts 59°
2026-05-04 13:08 52.15126 2.58796 22029 ft 412 kts 59°
2026-05-04 13:08 52.16577 2.62811 21650 ft 408 kts 59°
2026-05-04 13:08 52.18011 2.66797 21282 ft 403 kts 59°
2026-05-04 13:08 52.19393 2.70647 21140 ft 390 kts 59°
2026-05-04 13:09 52.20751 2.74432 20605 ft 388 kts 59°
2026-05-04 13:09 52.22129 2.78268 20079 ft 390 kts 59°
2026-05-04 13:09 52.23506 2.82105 19798 ft 391 kts 59°
2026-05-04 13:09 52.24881 2.85938 19432 ft 389 kts 59°
2026-05-04 13:10 52.26243 2.89737 19067 ft 386 kts 59°
2026-05-04 13:10 52.27593 2.93510 18707 ft 383 kts 59°
2026-05-04 13:10 52.28934 2.97269 18339 ft 380 kts 60°
2026-05-04 13:10 52.30245 3.00953 17961 ft 377 kts 60°
2026-05-04 13:11 52.31561 3.04650 17609 ft 375 kts 59°
2026-05-04 13:11 52.32873 3.08332 17258 ft 373 kts 59°
2026-05-04 13:11 52.34177 3.11996 16911 ft 372 kts 59°
2026-05-04 13:11 52.35479 3.15663 16565 ft 370 kts 59°
2026-05-04 13:12 52.36769 3.19298 16213 ft 368 kts 59°
2026-05-04 13:12 52.38052 3.22919 15869 ft 366 kts 59°
2026-05-04 13:12 52.38899 3.25314 15639 ft 365 kts 59°
2026-05-04 13:12 52.40575 3.30067 15188 ft 363 kts 59°
2026-05-04 13:13 52.41840 3.33661 14846 ft 361 kts 59°
2026-05-04 13:13 52.43086 3.37213 14510 ft 359 kts 59°
2026-05-04 13:13 52.43915 3.39586 14275 ft 358 kts 60°
2026-05-04 13:13 52.44924 3.43322 13938 ft 357 kts 72°
2026-05-04 13:14 52.45534 3.47223 13590 ft 355 kts 77°
2026-05-04 13:14 52.46096 3.51159 13250 ft 352 kts 77°
2026-05-04 13:14 52.46657 3.55070 12916 ft 350 kts 77°
2026-05-04 13:14 52.47214 3.58953 12589 ft 349 kts 77°
2026-05-04 13:15 52.47771 3.62829 12257 ft 349 kts 77°
2026-05-04 13:15 52.48319 3.66655 11934 ft 347 kts 77°
2026-05-04 13:15 52.48867 3.70506 11615 ft 345 kts 77°
2026-05-04 13:15 52.49412 3.74350 11288 ft 344 kts 77°
2026-05-04 13:16 52.49953 3.78177 10963 ft 342 kts 77°
2026-05-04 13:16 52.50485 3.81967 10641 ft 340 kts 77°
2026-05-04 13:16 52.51016 3.85755 10380 ft 335 kts 77°
2026-05-04 13:16 52.51523 3.89365 10255 ft 322 kts 77°
2026-05-04 13:17 52.52011 3.92886 10123 ft 310 kts 79°
2026-05-04 13:17 52.52170 3.96369 9903 ft 301 kts 95°
2026-05-04 13:17 52.51795 3.99728 9824 ft 297 kts 109°
2026-05-04 13:17 52.51052 4.02879 9749 ft 295 kts 114°
2026-05-04 13:18 52.50297 4.05966 9648 ft 294 kts 113°
2026-05-04 13:18 52.49540 4.09081 9534 ft 293 kts 113°
2026-05-04 13:18 52.48782 4.12194 9409 ft 293 kts 113°
2026-05-04 13:18 52.48022 4.15314 9292 ft 292 kts 113°
2026-05-04 13:19 52.47264 4.18412 9170 ft 291 kts 113°
2026-05-04 13:19 52.46518 4.21456 9046 ft 291 kts 113°
2026-05-04 13:19 52.45760 4.24533 8940 ft 290 kts 113°
2026-05-04 13:19 52.44999 4.27617 8822 ft 290 kts 114°
2026-05-04 13:20 52.44243 4.30684 8697 ft 289 kts 114°
2026-05-04 13:20 52.43499 4.33707 8591 ft 287 kts 113°
2026-05-04 13:20 52.42747 4.36756 8477 ft 287 kts 114°
2026-05-04 13:20 52.41996 4.39790 8356 ft 286 kts 113°
2026-05-04 13:21 52.41243 4.42824 8238 ft 286 kts 114°
2026-05-04 13:21 52.40503 4.45807 8121 ft 285 kts 113°
2026-05-04 13:21 52.39757 4.48817 8004 ft 285 kts 113°
2026-05-04 13:21 52.39009 4.51825 7888 ft 284 kts 114°
2026-05-04 13:22 52.38259 4.54827 7778 ft 284 kts 114°
2026-05-04 13:22 52.37512 4.57824 7652 ft 284 kts 114°
2026-05-04 13:22 52.36764 4.60819 7536 ft 283 kts 114°
2026-05-04 13:22 52.36017 4.63803 7420 ft 282 kts 113°
2026-05-04 13:23 52.35270 4.66784 7304 ft 281 kts 113°
2026-05-04 13:23 52.34544 4.69684 7194 ft 269 kts 113°
2026-05-04 13:23 52.33850 4.72456 7060 ft 258 kts 114°
2026-05-04 13:23 52.33272 4.74384 6892 ft 251 kts 123°
2026-05-04 13:24 52.32304 4.76305 6791 ft 244 kts 139°
2026-05-04 13:24 52.31030 4.78149 6613 ft 241 kts 140°
2026-05-04 13:24 52.29803 4.79924 6472 ft 228 kts 139°
2026-05-04 13:25 52.27499 4.83256 5964 ft 220 kts 140°
2026-05-04 13:25 52.26351 4.84920 5749 ft 220 kts 140°
2026-05-04 13:25 52.25210 4.86576 5539 ft 219 kts 139°
2026-05-04 13:25 52.24074 4.88223 5352 ft 213 kts 140°
2026-05-04 13:26 52.22871 4.89540 5134 ft 203 kts 157°
2026-05-04 13:26 52.21557 4.90217 4937 ft 194 kts 173°
2026-05-04 13:26 52.20243 4.90307 4797 ft 190 kts 185°
2026-05-04 13:26 52.18917 4.90176 4566 ft 190 kts 184°
2026-05-04 13:27 52.17595 4.90051 4356 ft 190 kts 184°
2026-05-04 13:27 52.16283 4.89930 4158 ft 188 kts 184°
2026-05-04 13:27 52.14976 4.89809 3972 ft 187 kts 184°
2026-05-04 13:27 52.13672 4.89687 3788 ft 187 kts 184°
2026-05-04 13:28 52.12425 4.89262 3589 ft 185 kts 206°
2026-05-04 13:28 52.11434 4.87998 3420 ft 177 kts 232°
2026-05-04 13:28 52.10907 4.86261 3236 ft 168 kts 256°
2026-05-04 13:28 52.10847 4.84386 3058 ft 165 kts 273°
2026-05-04 13:29 52.10947 4.82527 2874 ft 164 kts 279°
2026-05-04 13:29 52.11278 4.80773 2707 ft 164 kts 294°
2026-05-04 13:29 52.11872 4.79199 2535 ft 163 kts 308°
2026-05-04 13:29 52.12685 4.77902 2392 ft 163 kts 322°
2026-05-04 13:30 52.13677 4.76983 2338 ft 164 kts 337°
2026-05-04 13:30 52.14775 4.76572 2259 ft 165 kts 356°
2026-05-04 13:30 52.15920 4.76578 2217 ft 159 kts 360°
2026-05-04 13:30 52.16969 4.76644 2112 ft 145 kts
2026-05-04 13:31 52.17952 4.76721 2067 ft 139 kts
2026-05-04 13:31 52.18908 4.76803 1969 ft 138 kts
2026-05-04 13:31 52.19875 4.76888 1823 ft 139 kts
2026-05-04 13:31 52.20845 4.76976 1652 ft 139 kts
2026-05-04 13:32 52.21803 4.77064 1463 ft 137 kts
2026-05-04 13:32 52.22758 4.77151 1280 ft 136 kts
2026-05-04 13:32 52.23682 4.77237 1107 ft 133 kts
2026-05-04 13:32 52.24605 4.77322 918 ft 131 kts
2026-05-04 13:33 52.25521 4.77406 742 ft 131 kts 360°
2026-05-04 13:33 52.26432 4.77490 554 ft 130 kts
2026-05-04 13:33 52.27342 4.77574 388 ft 130 kts
2026-05-04 13:33 52.28261 4.77659 204 ft 133 kts
2026-05-04 13:34 52.29179 4.77742 42 ft 133 kts
2026-05-04 13:34 52.30009 4.77813 13 ft 91 kts
2026-05-04 13:34 52.30346 4.77852 21 ft 28 kts
2026-05-04 13:34 52.30471 4.77776 21 ft 14 kts 330°
2026-05-04 13:35 52.30528 4.77729 18 ft 9 kts 333°
2026-05-04 13:35 52.30643 4.77580 14 ft 11 kts 284°
2026-05-04 13:35 52.30640 4.77429 13 ft 15 kts 258°
2026-05-04 13:36 52.30619 4.77358 11 ft 13 kts 238°
2026-05-04 13:36 52.30612 4.77281 8 ft 7 kts 300°
2026-05-04 13:36 52.30640 4.77231 7 ft 6 kts 321°
2026-05-04 13:37 52.30680 4.77214 6 ft 5 kts 353°
2026-05-04 13:37 52.30701 4.77215 6 ft 2 kts
2026-05-04 13:37 52.30714 4.77216 6 ft 0 kts